www.pogodaiklimat.ru

Погода и климат >> Архив погоды >> Малайзия >> Kuala Lumpur


АРХИВ ПОГОДЫ в Kuala Lumpur

Время (UTC), дата Ветер
(напр.,м/с)
 
Видим.   Явления Облачность Т
(С)
Тd
(С)
f
(%)
Тe
(С)
Тes
(С)
Комфортность P
(гПа)
Po
(гПа)
Тmin
(С)
Tmax
(С)
R
(мм)
R24
(мм)
S
(см)
00 10.08 штиль 0 5000 м зарница 9/5 240 м
[Cb cap Ac und Cs]
+25.2 +24.0 93 +35 +35 очень
душно
1011.6 1009.1 +24.0 35
03 10.08 ЮВ 2 5000 м мгла 9/1 570 м
[Cu med, cong Ac lent Ci sp]
+29.7 +23.5 69 +40 +48 очень
душно
1012.1 1009.6
06 10.08 Ю 4 9000 м слабый ливневой дождь 9/4 500 м
[Cb cap Ac lent Ci sp]
+29.8 +24.9 75 +43 +47 опасность
перегрева
1009.9 1007.4 0.4
09 10.08 штиль 0 10 км гроза без осадков {ливн. осадки} 9/3 500 м
[Cb cap Ac lent Cs]
+26.9 +24.6 87 +38 +42 очень
душно
1008.6 1006.1
12 10.08 СЗ 1 7000 м мгла {гроза, дождь} 9/1 750 м
[Sc diur, vesp Ac lent Cs]
+26.4 +24.7 90 +37 +37 очень
душно
1009.6 1007.1 +31.9 1
15 10.08 СЗ 2 6000 м зарница {дождь} 9/4 480 м
[Cb cap Ac lent Ci sp]
+25.7 +24.7 94 +36 +36 очень
душно
1011.8 1009.3
18 10.08 СЗ 2 6000 м мгла {дождь} 9/3 750 м
[Sc Ac lent Ci sp]
+25.5 +24.2 93 +35 +35 очень
душно
1011.7 1009.2
21 10.08 штиль 0 6000 м мгла 9/4 750 м
[Sc Ac lent Ci sp]
+25.1 +23.6 91 +34 +34 очень
душно
1011.1 1008.6
00 11.08 штиль 0 6000 м мгла {дождь} 9/5 480 м
[Cb cap Ac lent Ci sp]
+25.3 +24.0 93 +35 +35 очень
душно
1011.7 1009.2 +25.0 2
03 11.08 штиль 0 5000 м слабый дождь 9/5 240 м
[Frnb Ac lent Cs]
+23.6 +22.5 94 +31 +37 очень
душно
1013.0 1010.5
06 11.08 штиль 0 12 км мгла {дождь} 9/5 500 м
[Cb cap Ac trans Ci sp]
+28.1 +23.3 75 +38 +46 очень
душно
1011.1 1008.6 29
09 11.08 СЗ 2 15 км мгла 9/4 570 м
[Cu med, cong Ac trans Ci sp]
+27.3 +23.9 82 +38 +40 очень
душно
1009.4 1006.9
12 11.08 СЗ 1 10 км мгла 9/3 800 м
[Sc Ac lent Cs]
+26.0 +23.8 88 +36 +36 очень
душно
1010.6 1008.1 +28.6
15 11.08 СЗ 2 7000 м мгла 10/1 750 м
[Sc Ac lent Cs]
+25.3 +23.6 90 +34 +34 очень
душно
1012.5 1010.0
18 11.08 С 1 6000 м зарница 10/1 500 м
[Cb cap Ac lent Cs]
+24.7 +23.1 91 +33 +33 очень
душно
1012.4 1009.9
21 11.08 штиль 0 8000 м мгла {дождь} 10/1 750 м
[Sc Ac lent Cs]
+24.4 +23.1 92 +32 +32 очень
душно
1011.7 1009.2
00 12.08 СЗ 2 5000 м мгла {дождь} 9/1 500 м
[Cb cap Ac lent Ci sp]
+24.4 +22.6 90 +32 +33 очень
душно
1012.5 1010.0 +23.2 28
03 12.08 З 3 12 км мгла 9/5 540 м
[Cu Sc Ac und Ci sp]
+28.0 +22.8 73 +37 +41 очень
душно
1014.0 1011.5
06 12.08 СЗ 5 15 км мгла 9/4 500 м
[Cb cap Ac und Ci sp]
+30.7 +23.4 65 +41 +45 опасность
перегрева
1011.6 1012.0
09 12.08 СЗ 4 15 км мгла 9/4 500 м
[Sc diur, vesp Ac trans Ci sp]
+31.3 +23.4 63 +42 +44 опасность
перегрева
1008.9 1006.4
12 12.08 З 3 10 км зарница 9/4 500 м
[Cb cap Ac lent Ci sp]
+27.2 +23.2 79 +37 +37 очень
душно
1010.6 1008.1 +31.6
15 12.08 штиль 0 10 км слабый дождь 9/4 500 м
[Cb calv Ac lent Cs]
+26.2 +24.0 88 +36 +36 очень
душно
1013.2 1010.7
18 12.08 С 2 10 км зарница {дождь} 9/3 480 м
[Cb calv Ac trans Ci fib]
+25.3 +23.6 90 +34 +34 очень
душно
1011.9 1009.4
21 12.08 штиль 0 10 км зарница 9/3 500 м
[Cb calv Ac trans Ci fib]
+24.9 +23.2 90 +33 +33 очень
душно
1011.1 1008.6
00 13.08 штиль 0 12 км мгла 9/4 500 м
[Cb cap Ac trans Ci sp]
+25.2 +22.5 85 +33 +34 очень
душно
1012.3 1009.8 +24.4
03 13.08 СЗ 4 12 км мгла 9/4 570 м
[Cu med, cong Ac lent Ci sp]
+27.5 +23.0 76 +37 +41 очень
душно
1013.3 1010.8
06 13.08 СЗ 2 15 км мгла 9/4 570 м
[Cu med, cong Ac lent Ci sp]
+30.7 +23.3 65 +41 +48 опасность
перегрева
1011.0 1008.5
09 13.08 З 3 12 км мгла 9/4 570 м
[Cu med, cong Ac lent Ci fib]
+31.0 +23.9 66 +43 +44 опасность
перегрева
1009.0 1006.5
12 13.08 штиль 0 9000 м гроза без осадков 9/5 240 м
[Cb cap Ac und Ci sp]
+27.8 +23.9 79 +38 +38 очень
душно
1011.3 1008.8 +31.7
15 13.08 С 1 10 км мгла 9/3 800 м
[Sc Ac lent Ci sp]
+27.0 +23.4 81 +37 +37 очень
душно
1013.4 1010.9
18 13.08 штиль 0 10 км мгла 9/3 800 м
[Sc Ac trans Ci sp]
+26.4 +23.5 84 +36 +36 очень
душно
1012.3 1009.8
21 13.08 штиль 0 10 км зарница 9/4 500 м
[Cb cap Ac lent Ci sp]
+25.3 +23.6 90 +34 +34 очень
душно
1011.2 1008.7
00 14.08 ЮВ 3 500 м дождь 10/6 90 м
[Cb cap Ac und Cs]
+25.0 +23.9 94 +34 +34 очень
душно
1012.5 1010.0 +25.0 11
03 14.08 С 2 6000 м слабый дождь {гроза} 10/4 210 м
[Cb cap Ac lent Cs]
+26.0 +24.2 90 +36 +41 очень
душно
1013.7 1011.2
06 14.08 СЗ 2 12 км в посл. час дождь {гроза} 9/1 500 м
[Cb cap Ac lent Ci sp]
+28.8 +24.9 79 +41 +52 опасность
перегрева
1011.4 1008.9 18
09 14.08 В 2 12 км мгла 9/3 500 м
[Cb cap Ac lent Ci sp]
+28.6 +23.6 74 +39 +42 очень
душно
1009.3 1006.8
12 14.08 штиль 0 10 км зарница 9/1 500 м
[Cb cap Ac trans Ci sp]
+26.7 +23.8 84 +37 +37 очень
душно
1011.0 1008.5 +31.2
15 14.08 штиль 0 10 км зарница 9/4 500 м
[Cb cap Ac lent Ci sp]
+25.9 +24.1 90 +36 +36 очень
душно
1013.1 1010.6
18 14.08 штиль 0 9000 м слабый дождь 9/4 480 м
[Cb cap Ac lent Ci sp]
+24.1 +23.0 94 +32 +32 очень
душно
1012.0 1009.5 1
21 14.08 штиль 0 10 км зарница {дождь} 9/4 480 м
[Cb cap Ac lent Ci sp]
+24.6 +23.1 91 +33 +33 очень
душно
1011.7 1009.2
00 15.08 СЗ 1 4000 м дождь 10/6 180 м
[Sc Ac lent Cs]
+23.6 +22.4 93 +31 +31 очень
душно
1013.4 1010.9 +23.6 22
03 15.08 СВ 1 12 км мгла {дождь} 9/4 540 м
[Cu med, cong Ac lent Ci sp]
+26.1 +23.3 85 +35 +42 очень
душно
1014.0 1011.5
06 15.08 Ю 2 15 км мгла 9/4 540 м
[Cu med, cong Ac lent Cs]
+29.0 +23.0 70 +39 +47 очень
душно
1011.2 1008.7 4
09 15.08 Ю 2 15 км мгла 9/4 500 м
[Cb cap Ac trans Cs]
+29.1 +23.6 72 +40 +42 очень
душно
1009.2 1006.7
12 15.08 ЮВ 3 10 км мгла 9/1 800 м
[Sc Ac trans Ci sp]
+27.0 +23.7 82 +37 +37 очень
душно
1010.8 1008.3 +30.3
15 15.08 штиль 0 10 км мгла 9/1 800 м
[Sc Ac lent Ci sp]
+26.5 +23.6 84 +36 +36 очень
душно
1012.5 1010.0
18 15.08 С 2 8000 м зарница 9/1 500 м
[Cb cap Ac lent Ci sp]
+25.9 +23.8 88 +35 +35 очень
душно
1011.3 1008.8
21 15.08 штиль 0 5000 м ливневой дождь, в посл. час гроза 10/3 300 м
[Cb cap Ac lent Cs]
+23.7 +22.6 94 +31 +31 очень
душно
1010.9 1008.4
00 16.08 СВ 1 10 км мгла {гроза, дождь} 9/1 300 м
[Cu med, cong Ac und Ci sp]
+24.2 +23.1 94 +32 +33 очень
душно
1010.6 1008.1 +23.4 15
03 16.08 З 1 12 км мгла 9/3 540 м
[Cu med, cong Ac und Ci sp]
+27.8 +23.3 77 +38 +45 очень
душно
1011.3 1008.8
06 16.08 ЮВ 2 18 км мгла 9/3 570 м
[Cu med, cong Ac lent Ci sp]
+32.4 +21.1 51 +40 +48 очень
душно
1007.9 1005.4
09 16.08 З 4 15 км мгла 9/3 300 м
[Cu med, cong Ac und Ci sp]
+30.6 +23.3 65 +41 +43 опасность
перегрева
1007.2 1004.7
12 16.08 штиль 0 10 км мгла 9 баллов +28.3 +23.5 75 +38 +38 очень
душно
1008.8 1006.3 +33.3
15 16.08 штиль 0 10 км мгла 9/1 800 м
[Sc Ac trans Ci fib]
+27.7 +23.8 79 +38 +38 очень
душно
1010.7 1008.2
18 16.08 СЗ 1 10 км мгла 9/1 800 м
[Sc Ac trans Ci fib]
+26.3 +23.7 86 +36 +36 очень
душно
1009.0 1006.5
21 16.08 штиль 0 9000 м зарница 9/4 500 м
[Cb calv Ac trans Ci fib]
+25.6 +23.8 90 +35 +35 очень
душно
1008.2 1005.7

 

Местоположение метеостанции Kuala Lumpur (Малайзия): широта 3.12 долгота 101.55 высота над уровнем моря 22 м.

В архиве по умолчанию представлена погода в Kuala Lumpur за последнюю неделю. Архивные данные за месяц целиком и за предыдущие месяцы, начиная с января 2011 года, Вы можете получить, выбрав интересующий диапазон дат из раскрывающегося списка и нажав кнопку "Ввод!".

Внимание! Время в таблицах - всемирное. Для получения местного времени необходимо прибавить поправку, которая в Kuala Lumpur равна 7 ч.

Смотрите также архив погоды в соседних городах и на ближайших метеорологических станциях:

Погода в Kuala Lumpur Int Airport (Малайзия) (48 км)
Погода в Malacca (Малайзия) (122 км)
Погода в Cameron Highlands (Малайзия) (151 км)
Погода в Sitiawan (Малайзия) (155 км)
Погода в Ipoh (Малайзия) (169 км)
Погода в Kuantan (Малайзия) (198 км)
Погода в Penang (Малайзия) (282 км)
Погода в Johore Bharu / Senai (Малайзия) (288 км)
Погода в Butterworth Air Base (Малайзия) (292 км)
Погода в Pekanbaru (Индонезия) (295 км)

Пояснения к столбцам:

Ветер - указаны скорость ветра в м/с - средняя за 10 мин, порывы в срок и между сроками (в фигурных скобках) и направление, откуда дует ветер: С - северный, СВ - северо-восточный, В - восточный, ЮВ - юго-восточный, Ю - южный, ЮЗ - юго-западный, З - западный, СЗ - северо-западный.
Видимость - горизонтальная дальность видимости в метрах или километрах. При видимости от 1 до 10 км при отсутствии осадков обычно наблюдается дымка, при ухудшении видимости до 1 км и менее - туман. В сухую погоду видимость может ухудшаться дымом, пылью или мглою.
Явления - указаны атмосферные явления, наблюдавшиеся в срок или в последний час перед сроком; фигурными скобками обозначены явления, наблюдавшиеся между сроками (за 1-3 часа до срока); квадратными скобками обозначены град или гололедные отложения с указанием их диаметра в мм.
Облачность - указаны через наклонную черту общая и нижняя облачность в баллах и высота нижней границы облаков в метрах; квадратными скобками обозначены формы облаков: Ci - перистые, Cs - перисто-слоистые, Cc - перисто-кучевые, Ac - высококучевые, As - высокослоистые, Sc - слоисто-кучевые, Ns - слоисто-дождевые, Cu - кучевые, Cb - кучево-дождевые. Подробнее классификацию облаков см. в Атласе облаков (PDF).
T - Температура воздуха - температура, измеренная на высоте 2 м над землей.
Td - Температура точки росы - температура, при понижении до которой содержащийся в воздухе водяной пар достигнет насыщения.
f - Относительная влажность воздуха - влажноcть воздуха, измеренная на высоте 2 м над землей.
Te - Эффективная температура - температура, которую ощущает одетый по сезону человек в тени. Характеристика душности погоды. При расчете учитывается влияние влажности воздуха и скорости ветра на теплоощущения человека.
Tes - Эффективная температура на солнце - температура, которую ощущает человек, с поправкой на солнечный нагрев. Характеристика знойности погоды. Зависит от высоты солнца над горизонтом, облачности и скорости ветра. Ночью, в пасмурную погоду, а также при ветре 12 м/с и более поправка равна нулю.
P - Атмосферное давление - приведенное к уровню моря атмосферное давление.
Po - Атмосферное давление - измеренное на уровне метеостанции атмосферное давление.
Tmin - Минимальная температура - минимум температуры воздуха на высоте 2 м над землей.
Tmax - Максимальная температура - максимум температуры воздуха на высоте 2 м над землей.
R - Количество осадков - Количество выпавших осадков за период времени, мм. При наведении курсора мыши на число - период времени, за который выпало указанное количество осадков.
R24 - Количество осадков - Количество выпавших осадков за 24 часа, мм.
S - Снежный покров - Высота снежного покрова, см. При наведении курсора мыши на число - состояние снежного покрова и степень покрытия местности в баллах.